Clarksburg, WV

8:52 AM EDT on October 16, 2019 (GMT -0400)
Benedum

Weather History for KCKB - August, 2019

Change the Weather History Date:

Wednesday, August 21, 2019

  Actual Average Record
Temperature  
Mean Temperature 79 °F -  
Max Temperature 87 °F 80 °F 98 °F (1955)
Min Temperature 71 °F 59 °F 46 °F (1940)
Cooling Degree Days 14    
Growing Degree Days 29 (Base 50)    
Moisture  
Dew Point 68 °F    
Average Humidity 74    
Maximum Humidity 90    
Minimum Humidity 53    
Precipitation  
Precipitation 0.13 in - - ()
Sea Level Pressure  
Sea Level Pressure 29.96 in    
Wind  
Wind Speed 5 mph ()    
Max Wind Speed 13 mph    
Max Gust Speed 24 mph    
Visibility 9.4 miles    
Events Rain , Thunderstorm    
Averages and records for this station are not official NWS values.
T = Trace of Precipitation, MM = Missing Value Source: Averaged Metar Reports

Daily Weather History Graph

Daily Weather History Graph

Search for Another Location

Airport or City:

Astronomy

Aug. 21, 2019 Rise Set
Actual Time 6:39 AM EDT 8:08 PM EDT
Civil Twilight 6:10 AM EDT 8:36 PM EDT
Nautical Twilight 5:36 AM EDT 9:10 PM EDT
Astronomical Twilight 5:01 AM EDT 9:46 PM EDT
Moon 11:27 PM EDT (8/21) 12:11 PM EDT (8/21)
Length of Visible Light 14h 25m
Length of Day
13h 29m
Waning Gibbous, 69% of the Moon is Illuminated
Aug 21
Waning Gibbous
Aug 23
Last Quarter
Aug 30
New
Sep 5
First Quarter
Sep 14
Full

Hourly Weather History & Observations

Time (EDT) Temp. Heat Index Dew Point Humidity Pressure Visibility Wind Dir Wind Speed Gust Speed Precip Events Conditions
12:53 AM 71.1 °F - 66.9 °F 87% 30.01 in 10.0 mi North 3.5 mph - 0.00 in Rain Light Rain
1:53 AM 72.0 °F - 68.0 °F 87% 29.98 in 10.0 mi SE 4.6 mph - 0.01 in   Mostly Cloudy
2:53 AM 71.1 °F - 68.0 °F 90% 29.96 in 7.0 mi Calm Calm - N/A   Mostly Cloudy
3:53 AM 71.1 °F - 68.0 °F 90% 29.95 in 8.0 mi Calm Calm - N/A   Partly Cloudy
4:53 AM 71.1 °F - 68.0 °F 90% 29.95 in 8.0 mi South 3.5 mph - N/A   Scattered Clouds
5:06 AM 72.0 °F - 68.0 °F 87% 30.01 in 6.0 mi Calm Calm - N/A Thunderstorm Mostly Cloudy
5:15 AM 72.0 °F - 68.0 °F 87% 30.01 in 2.0 mi SW 3.5 mph - 0.06 in Rain Heavy Rain
5:53 AM 72.0 °F - 68.0 °F 87% 29.95 in 10.0 mi South 8.1 mph - 0.12 in Rain Light Rain
6:53 AM 71.1 °F - 66.9 °F 87% 29.97 in 10.0 mi SSW 4.6 mph - 0.00 in   Clear
7:53 AM 73.9 °F - 68.0 °F 82% 29.97 in 10.0 mi SSW 4.6 mph - N/A   Clear
8:53 AM 75.0 °F - 69.1 °F 82% 29.97 in 10.0 mi SSW 9.2 mph - N/A   Scattered Clouds
9:53 AM 75.9 °F - 69.1 °F 79% 29.97 in 10.0 mi SW 8.1 mph - N/A   Mostly Cloudy
10:53 AM 78.1 °F - 68.0 °F 71% 29.97 in 10.0 mi SW 9.2 mph - N/A   Mostly Cloudy
11:00 AM 78.1 °F - 68.0 °F 71% 30.01 in 10.0 mi SW 10.4 mph - N/A   Overcast
11:14 AM 80.1 °F 82.9 °F 69.1 °F 69% 30.01 in 10.0 mi SW 10.4 mph - N/A   Mostly Cloudy
11:37 AM 80.1 °F 82.3 °F 66.9 °F 64% 30.01 in 10.0 mi WSW 10.4 mph - N/A   Mostly Cloudy
11:44 AM 81.0 °F 83.8 °F 68.0 °F 65% 30.01 in 10.0 mi West 8.1 mph - N/A   Mostly Cloudy
11:53 AM 82.0 °F 85.5 °F 69.1 °F 65% 29.96 in 10.0 mi WSW 10.4 mph - N/A   Mostly Cloudy
12:53 PM 84.0 °F 87.0 °F 68.0 °F 58% 29.96 in 10.0 mi West 11.5 mph 17.3 mph N/A   Unknown
1:53 PM 84.9 °F 88.8 °F 69.1 °F 59% 29.94 in 10.0 mi WNW 12.7 mph - N/A   Partly Cloudy
2:53 PM 84.0 °F 87.0 °F 68.0 °F 58% 29.94 in 10.0 mi WNW 8.1 mph - N/A   Scattered Clouds
3:53 PM 84.9 °F 88.2 °F 68.0 °F 57% 29.93 in 10.0 mi WSW 8.1 mph - N/A   Partly Cloudy
4:53 PM 87.1 °F 90.6 °F 68.0 °F 53% 29.91 in 10.0 mi WSW 12.7 mph 24.2 mph N/A   Mostly Cloudy
5:53 PM 82.9 °F 86.5 °F 69.1 °F 63% 29.92 in 10.0 mi NW 8.1 mph - N/A   Scattered Clouds
6:53 PM 82.9 °F 86.5 °F 69.1 °F 63% 29.91 in 10.0 mi WNW 10.4 mph - N/A   Clear
7:53 PM 81.0 °F 83.3 °F 66.9 °F 62% 29.91 in 10.0 mi West 8.1 mph - N/A   Clear
8:53 PM 78.1 °F - 66.9 °F 68% 29.94 in 10.0 mi Variable 3.5 mph - N/A   Clear
9:53 PM 73.9 °F - 66.0 °F 76% 29.95 in 10.0 mi Calm Calm - N/A   Clear
10:53 PM 73.9 °F - 66.9 °F 79% 29.96 in 10.0 mi Calm Calm - N/A   Mostly Cloudy
11:53 PM 73.0 °F - 68.0 °F 84% 29.96 in 10.0 mi South 3.5 mph - N/A   Mostly Cloudy